Precipitable_Water
0.24 0.17 0.15 0.14 0.16 0.17 0.17 0.17 0.19 0.18 0.19 0.18 0.17 0.17 0.17 0.17 0.19 0.20 0.22 0.24 0.25 0.23 0.21 0.19 0.19 0.18 0.18 0.26 0.41 0.49 0.48 0.46 0.49 0.51 0.51 0.54 0.55 0.57 0.65 0.74 0.84 0.90 0.90 1.00 1.04 1.08 1.09 1.10 1.06 1.07 1.12 1.15 1.18 1.22 1.25 1.29 1.29 1.34 1.32 1.41 1.31 1.34 1.35 1.25 1.16 1.15 1.12 1.09 1.20 1.13 1.01 0.92 0.90 0.90 0.92 0.93 0.93 0.94 0.91 0.92 0.91 0.87 0.92 0.95 0.93 0.97
0.22 0.17 0.17 0.18 0.19 0.20 0.23 0.21 0.18 0.18 0.16 0.16 0.16 0.16 0.15 0.16 0.18 0.21 0.22 0.23 0.29 0.22 0.22 0.20 0.19 0.20 0.20 0.34 0.45 0.52 0.46 0.46 0.50 0.50 0.51 0.54 0.57 0.60 0.66 0.74 0.83 0.92 0.98 0.98 0.97 1.03 1.03 1.06 1.06 1.07 1.09 1.13 1.08 1.15 1.23 1.25 1.28 1.33 1.30 1.21 1.27 1.33 1.33 1.29 1.23 1.12 1.08 1.16 1.17 1.08 0.97 0.94 0.89 0.85 0.87 0.84 0.88 0.84 0.84 0.83 0.84 0.84 0.83 0.86 0.86 0.88
0.18 0.15 0.19 0.20 0.25 0.21 0.19 0.19 0.18 0.17 0.16 0.16 0.17 0.17 0.18 0.16 0.20 0.25 0.24 0.26 0.28 0.23 0.23 0.20 0.18 0.20 0.28 0.33 0.47 0.48 0.49 0.54 0.59 0.58 0.57 0.58 0.60 0.63 0.69 0.76 0.85 0.89 0.87 0.90 0.94 1.00 1.00 1.02 1.07 1.06 1.08 1.10 1.12 1.17 1.23 1.26 1.27 1.28 1.25 1.14 1.16 1.17 1.23 1.21 1.11 1.05 1.02 1.00 1.08 1.08 0.96 0.94 0.95 1.01 0.94 0.89 0.84 0.84 0.78 0.78 0.80 0.85 0.87 0.86 0.86 0.84
0.17 0.17 0.21 0.24 0.21 0.19 0.18 0.18 0.18 0.17 0.17 0.18 0.17 0.21 0.15 0.20 0.16 0.17 0.22 0.27 0.26 0.25 0.24 0.18 0.19 0.27 0.28 0.34 0.37 0.49 0.48 0.59 0.68 0.65 0.65 0.65 0.64 0.65 0.71 0.77 0.82 0.85 0.84 0.83 0.88 0.93 0.99 1.01 1.04 1.07 1.06 1.10 1.11 1.17 1.22 1.22 1.21 1.25 1.27 1.20 1.17 1.18 1.18 1.16 1.11 1.04 1.10 1.05 1.14 1.10 1.01 0.94 0.85 0.79 0.83 0.82 0.83 0.81 0.80 0.74 0.80 0.79 0.78 0.78 0.76 0.78
0.19 0.26 0.28 0.24 0.21 0.20 0.19 0.18 0.17 0.16 0.14 0.19 0.22 0.20 0.19 0.21 0.18 0.24 0.29 0.28 0.27 0.25 0.24 0.20 0.21 0.21 0.26 0.25 0.30 0.40 0.51 0.57 0.63 0.63 0.64 0.65 0.71 0.78 0.80 0.80 0.85 0.84 0.83 0.82 0.86 0.93 0.99 1.01 1.01 1.06 1.09 1.13 1.10 1.17 1.19 1.22 1.23 1.23 1.24 1.24 1.28 1.26 1.22 1.17 1.19 1.17 1.16 1.12 1.09 1.04 0.98 0.91 0.82 0.80 0.80 0.79 0.76 0.77 0.74 0.74 0.74 0.72 0.75 0.74 0.73 0.75
0.19 0.24 0.24 0.20 0.20 0.20 0.22 0.19 0.19 0.18 0.17 0.20 0.22 0.23 0.24 0.23 0.22 0.23 0.25 0.23 0.23 0.22 0.23 0.24 0.16 0.16 0.22 0.29 0.32 0.43 0.44 0.48 0.57 0.56 0.54 0.63 0.72 0.75 0.75 0.77 0.83 0.86 0.88 0.86 0.86 0.92 1.00 1.05 1.08 1.13 1.15 1.14 1.14 1.15 1.21 1.23 1.24 1.22 1.26 1.32 1.41 1.29 1.30 1.26 1.25 1.25 1.11 1.01 0.94 0.90 0.80 0.72 0.71 0.69 0.72 0.70 0.67 0.70 0.71 0.66 0.67 0.71 0.75 0.74 0.73 0.76
0.22 0.27 0.22 0.22 0.21 0.21 0.21 0.21 0.20 0.21 0.21 0.22 0.22 0.22 0.25 0.24 0.23 0.25 0.23 0.22 0.19 0.19 0.25 0.24 0.19 0.18 0.24 0.24 0.37 0.38 0.43 0.46 0.53 0.55 0.60 0.65 0.68 0.73 0.74 0.76 0.79 0.81 0.84 0.89 0.92 1.00 1.06 1.10 1.14 1.20 1.22 1.18 1.14 1.17 1.25 1.25 1.22 1.22 1.22 1.26 1.30 1.21 1.19 1.25 1.23 1.22 1.06 0.98 0.94 0.89 0.84 0.77 0.72 0.70 0.74 0.76 0.74 0.71 0.67 0.68 0.67 0.68 0.71 0.71 0.70 0.71
0.21 0.22 0.21 0.23 0.23 0.22 0.21 0.19 0.23 0.20 0.23 0.21 0.32 0.25 0.25 0.23 0.22 0.25 0.25 0.22 0.22 0.30 0.28 0.24 0.22 0.20 0.21 0.26 0.30 0.33 0.36 0.42 0.46 0.50 0.57 0.63 0.68 0.73 0.78 0.80 0.80 0.81 0.86 0.88 0.94 1.01 1.11 1.16 1.14 1.10 1.18 1.18 1.20 1.20 1.21 1.19 1.18 1.18 1.22 1.25 1.25 1.27 1.29 1.19 1.24 1.16 1.07 0.96 0.96 0.94 0.85 0.77 0.72 0.68 0.66 0.72 0.72 0.71 0.69 0.67 0.68 0.69 0.68 0.68 0.69 0.68
0.20 0.21 0.22 0.23 0.23 0.22 0.20 0.22 0.24 0.22 0.22 0.29 0.28 0.26 0.24 0.23 0.24 0.26 0.24 0.23 0.23 0.22 0.21 0.22 0.23 0.18 0.19 0.29 0.29 0.28 0.27 0.31 0.36 0.42 0.49 0.56 0.63 0.71 0.79 0.81 0.82 0.85 0.88 0.93 0.95 0.99 0.97 0.97 1.08 1.22 1.14 1.10 1.19 1.21 1.17 1.17 1.18 1.19 1.23 1.25 1.27 1.24 1.29 1.25 1.23 1.15 1.10 1.08 1.05 0.93 0.81 0.72 0.70 0.70 0.72 0.73 0.71 0.68 0.68 0.65 0.67 0.69 0.67 0.67 0.71 0.71
0.25 0.26 0.26 0.27 0.24 0.22 0.24 0.25 0.27 0.25 0.22 0.29 0.29 0.28 0.27 0.26 0.26 0.26 0.24 0.23 0.24 0.20 0.18 0.22 0.26 0.18 0.18 0.28 0.25 0.28 0.28 0.33 0.35 0.38 0.44 0.52 0.60 0.68 0.74 0.79 0.82 0.87 0.91 0.95 0.96 0.93 0.91 0.96 0.95 0.91 1.03 1.03 1.06 1.14 1.20 1.23 1.22 1.18 1.20 1.19 1.23 1.17 1.19 1.19 1.23 1.21 1.16 1.10 0.99 0.87 0.79 0.69 0.68 0.72 0.73 0.73 0.69 0.68 0.68 0.65 0.65 0.66 0.67 0.67 0.65 0.66
0.28 0.29 0.31 0.29 0.25 0.28 0.29 0.28 0.27 0.26 0.30 0.33 0.29 0.26 0.24 0.24 0.24 0.24 0.24 0.25 0.23 0.18 0.18 0.26 0.27 0.21 0.17 0.25 0.26 0.25 0.28 0.38 0.35 0.38 0.41 0.44 0.49 0.52 0.56 0.69 0.81 0.86 0.91 0.94 0.96 0.94 0.97 0.98 0.97 1.03 0.99 0.95 0.98 1.06 1.14 1.16 1.15 1.17 1.17 1.19 1.20 1.11 1.11 1.22 1.29 1.23 1.15 1.10 0.97 0.89 0.79 0.69 0.68 0.71 0.71 0.69 0.68 0.69 0.69 0.66 0.66 0.67 0.67 0.67 0.63 0.62
0.25 0.28 0.27 0.28 0.31 0.29 0.30 0.27 0.30 0.31 0.31 0.31 0.27 0.24 0.24 0.23 0.24 0.22 0.21 0.23 0.18 0.17 0.24 0.26 0.26 0.25 0.15 0.23 0.29 0.37 0.38 0.40 0.38 0.39 0.42 0.45 0.48 0.54 0.57 0.58 0.69 0.83 0.89 0.97 0.96 0.96 0.96 0.95 0.97 1.04 1.06 1.04 0.99 1.02 1.08 1.12 1.14 1.16 1.16 1.18 1.17 1.17 1.17 1.22 1.14 1.17 1.18 1.10 0.99 0.93 0.84 0.75 0.73 0.74 0.73 0.69 0.67 0.69 0.69 0.67 0.66 0.66 0.64 0.64 0.62 0.60
0.23 0.24 0.27 0.30 0.32 0.30 0.28 0.27 0.28 0.31 0.31 0.29 0.28 0.25 0.20 0.20 0.20 0.16 0.19 0.16 0.15 0.15 0.24 0.27 0.25 0.22 0.18 0.24 0.39 0.37 0.40 0.42 0.45 0.45 0.45 0.46 0.48 0.53 0.57 0.58 0.68 0.79 0.88 0.96 0.95 0.96 1.00 1.02 1.03 1.06 1.09 1.13 1.09 1.05 1.04 1.05 1.09 1.10 1.07 1.08 1.10 1.10 1.13 1.08 1.05 1.00 1.07 1.09 1.01 0.96 0.90 0.81 0.79 0.79 0.77 0.72 0.70 0.73 0.70 0.68 0.65 0.62 0.62 0.62 0.61 0.62
0.21 0.26 0.26 0.27 0.30 0.31 0.30 0.24 0.27 0.26 0.28 0.26 0.24 0.23 0.20 0.17 0.18 0.15 0.16 0.18 0.17 0.22 0.26 0.25 0.27 0.19 0.23 0.29 0.35 0.39 0.42 0.47 0.50 0.51 0.51 0.51 0.53 0.55 0.58 0.63 0.66 0.71 0.80 0.92 0.94 0.98 1.00 1.06 1.02 1.03 0.95 0.96 1.01 1.06 1.09 1.07 1.02 1.02 1.02 1.04 1.07 1.13 1.19 1.10 1.05 0.99 0.95 0.99 1.01 0.99 0.96 0.87 0.84 0.82 0.81 0.77 0.73 0.74 0.73 0.69 0.64 0.63 0.63 0.63 0.63 0.63
0.17 0.19 0.23 0.25 0.24 0.30 0.29 0.28 0.31 0.29 0.29 0.26 0.27 0.24 0.22 0.19 0.18 0.16 0.15 0.14 0.15 0.15 0.25 0.26 0.18 0.16 0.18 0.23 0.35 0.42 0.47 0.49 0.53 0.55 0.56 0.58 0.59 0.61 0.63 0.65 0.67 0.70 0.75 0.84 0.88 0.95 1.01 1.04 1.05 1.06 0.95 0.93 0.90 0.89 0.97 1.03 1.04 1.05 1.04 1.03 1.05 1.09 1.14 1.11 1.11 1.04 0.92 0.92 0.97 0.98 1.00 0.93 0.88 0.85 0.85 0.81 0.75 0.73 0.71 0.69 0.65 0.66 0.67 0.66 0.66 0.65
0.20 0.21 0.25 0.28 0.31 0.31 0.28 0.30 0.31 0.30 0.29 0.29 0.29 0.27 0.22 0.21 0.24 0.19 0.22 0.19 0.20 0.20 0.20 0.22 0.18 0.24 0.25 0.41 0.39 0.42 0.50 0.51 0.53 0.55 0.59 0.57 0.62 0.64 0.64 0.64 0.66 0.70 0.74 0.78 0.81 0.87 0.96 1.03 1.08 1.07 1.04 1.01 0.99 0.94 0.95 1.00 1.05 1.08 1.08 1.10 1.10 1.09 1.10 1.13 1.10 1.09 0.98 0.91 0.94 0.97 0.99 0.97 0.92 0.88 0.88 0.83 0.76 0.73 0.73 0.67 0.64 0.67 0.70 0.71 0.72 0.68
0.23 0.21 0.30 0.30 0.31 0.30 0.30 0.31 0.31 0.30 0.23 0.29 0.26 0.21 0.22 0.29 0.26 0.22 0.20 0.24 0.21 0.20 0.19 0.27 0.23 0.24 0.28 0.27 0.35 0.39 0.43 0.48 0.50 0.52 0.56 0.58 0.61 0.65 0.63 0.65 0.69 0.73 0.78 0.83 0.86 0.85 0.87 0.92 0.96 1.04 1.11 1.08 1.05 1.03 1.03 1.03 1.08 1.09 1.10 1.12 1.12 1.14 1.13 1.10 1.10 1.08 1.06 0.95 0.93 0.95 0.99 1.00 0.95 0.89 0.85 0.82 0.76 0.71 0.71 0.69 0.67 0.69 0.73 0.74 0.74 0.71
0.24 0.22 0.29 0.27 0.24 0.28 0.32 0.33 0.32 0.31 0.29 0.29 0.23 0.26 0.29 0.30 0.29 0.23 0.17 0.20 0.17 0.15 0.18 0.23 0.20 0.22 0.21 0.18 0.34 0.35 0.39 0.41 0.47 0.48 0.52 0.57 0.61 0.60 0.62 0.66 0.70 0.74 0.79 0.84 0.85 0.84 0.86 0.89 0.91 0.96 1.08 1.12 1.09 1.06 1.12 1.14 1.12 1.09 1.10 1.16 1.19 1.16 1.09 1.11 1.09 1.09 1.05 0.97 0.92 0.95 0.98 1.01 0.98 0.93 0.88 0.85 0.80 0.74 0.71 0.71 0.71 0.73 0.72 0.73 0.75 0.74
0.31 0.24 0.29 0.30 0.28 0.28 0.30 0.31 0.29 0.31 0.32 0.26 0.25 0.33 0.24 0.22 0.19 0.22 0.20 0.16 0.16 0.15 0.16 0.20 0.21 0.21 0.23 0.26 0.31 0.33 0.35 0.40 0.43 0.50 0.52 0.54 0.57 0.58 0.62 0.65 0.70 0.73 0.74 0.76 0.78 0.80 0.82 0.87 0.90 0.88 0.96 1.03 1.10 1.06 1.10 1.15 1.12 1.09 1.14 1.21 1.22 1.18 1.10 1.10 1.13 1.08 1.03 0.97 0.95 0.98 1.03 1.05 1.04 1.01 0.96 0.90 0.85 0.78 0.71 0.67 0.67 0.67 0.69 0.73 0.75 0.73
0.35 0.25 0.28 0.33 0.29 0.29 0.29 0.28 0.23 0.26 0.29 0.30 0.29 0.27 0.30 0.27 0.24 0.24 0.23 0.20 0.19 0.16 0.16 0.18 0.19 0.17 0.22 0.24 0.31 0.32 0.38 0.45 0.49 0.51 0.53 0.56 0.58 0.61 0.64 0.68 0.67 0.69 0.70 0.72 0.74 0.77 0.78 0.83 0.86 0.88 0.88 0.93 1.00 0.93 0.96 1.07 1.08 1.02 1.08 1.18 1.23 1.22 1.15 1.11 1.10 1.04 0.97 0.94 0.97 1.02 1.07 1.11 1.09 1.05 1.01 0.94 0.85 0.77 0.67 0.63 0.63 0.65 0.68 0.72 0.74 0.73
0.32 0.34 0.26 0.30 0.32 0.30 0.25 0.27 0.24 0.27 0.25 0.25 0.24 0.24 0.26 0.25 0.29 0.29 0.30 0.24 0.21 0.19 0.18 0.18 0.18 0.19 0.26 0.35 0.31 0.34 0.41 0.48 0.54 0.52 0.55 0.58 0.62 0.64 0.67 0.68 0.69 0.67 0.66 0.70 0.75 0.79 0.79 0.79 0.82 0.86 0.91 0.93 0.93 0.89 0.92 1.01 1.01 1.02 1.06 1.10 1.12 1.13 1.15 1.14 1.11 1.00 0.95 0.96 0.97 1.01 1.02 1.04 1.04 1.02 1.00 0.94 0.86 0.76 0.69 0.64 0.63 0.66 0.70 0.71 0.72 0.72
0.32 0.31 0.26 0.29 0.28 0.26 0.27 0.31 0.30 0.29 0.29 0.28 0.27 0.24 0.25 0.24 0.22 0.19 0.18 0.25 0.23 0.20 0.20 0.19 0.17 0.21 0.35 0.37 0.38 0.42 0.47 0.49 0.56 0.56 0.55 0.59 0.60 0.64 0.66 0.70 0.70 0.69 0.70 0.72 0.76 0.79 0.78 0.77 0.75 0.78 0.83 0.84 0.82 0.82 0.82 0.93 1.00 1.02 1.03 1.06 1.07 1.09 1.11 1.10 1.08 1.04 1.00 0.98 0.99 0.98 1.01 1.03 0.99 0.96 0.96 0.94 0.88 0.78 0.71 0.66 0.66 0.68 0.69 0.67 0.70 0.71
0.40 0.36 0.31 0.28 0.29 0.28 0.29 0.32 0.33 0.32 0.31 0.30 0.30 0.28 0.29 0.27 0.25 0.22 0.18 0.22 0.24 0.23 0.24 0.22 0.20 0.25 0.36 0.39 0.39 0.39 0.42 0.47 0.54 0.55 0.55 0.58 0.60 0.62 0.65 0.68 0.72 0.74 0.75 0.77 0.80 0.80 0.78 0.78 0.76 0.75 0.75 0.75 0.77 0.80 0.88 0.91 0.95 0.96 0.97 0.99 1.01 1.03 1.05 1.09 1.12 1.14 1.10 1.06 1.02 0.98 0.96 0.97 0.97 0.95 0.94 0.94 0.91 0.82 0.73 0.67 0.69 0.70 0.68 0.67 0.69 0.71
0.44 0.32 0.29 0.29 0.30 0.32 0.32 0.32 0.32 0.32 0.30 0.28 0.29 0.30 0.29 0.27 0.27 0.25 0.24 0.25 0.24 0.24 0.20 0.20 0.19 0.24 0.35 0.41 0.41 0.40 0.43 0.48 0.55 0.57 0.57 0.57 0.61 0.63 0.65 0.66 0.68 0.70 0.75 0.79 0.81 0.80 0.81 0.82 0.79 0.78 0.76 0.77 0.82 0.85 0.88 0.90 0.94 0.95 0.97 0.98 0.96 0.94 0.93 0.96 1.00 1.03 1.03 1.01 1.00 0.99 0.97 0.95 0.97 0.96 0.97 0.96 0.95 0.86 0.77 0.69 0.68 0.67 0.66 0.69 0.71 0.72
0.35 0.37 0.34 0.28 0.26 0.26 0.28 0.29 0.28 0.31 0.30 0.29 0.29 0.30 0.30 0.30 0.29 0.31 0.29 0.29 0.23 0.25 0.23 0.21 0.19 0.25 0.34 0.44 0.45 0.44 0.44 0.47 0.53 0.57 0.59 0.58 0.61 0.63 0.64 0.65 0.68 0.70 0.71 0.73 0.75 0.77 0.80 0.82 0.81 0.80 0.82 0.82 0.84 0.87 0.90 0.92 0.93 0.92 0.94 0.92 0.91 0.90 0.91 0.93 0.97 0.97 0.97 0.97 0.96 0.96 0.97 0.97 0.98 0.98 0.99 1.00 0.99 0.90 0.83 0.77 0.70 0.67 0.67 0.71 0.74 0.79
0.40 0.39 0.34 0.27 0.23 0.20 0.19 0.20 0.22 0.24 0.25 0.29 0.30 0.29 0.30 0.30 0.29 0.27 0.23 0.24 0.21 0.25 0.25 0.22 0.22 0.35 0.42 0.46 0.46 0.48 0.49 0.50 0.54 0.57 0.61 0.64 0.63 0.63 0.65 0.66 0.69 0.69 0.67 0.69 0.71 0.72 0.73 0.76 0.81 0.81 0.80 0.78 0.81 0.84 0.89 0.92 0.94 0.91 0.88 0.91 0.92 0.91 0.92 0.94 0.97 0.96 0.95 0.95 0.94 0.95 0.97 0.99 1.00 0.99 1.00 1.00 0.99 0.92 0.88 0.86 0.78 0.70 0.72 0.75 0.77 0.84
0.41 0.42 0.39 0.35 0.32 0.27 0.28 0.33 0.33 0.33 0.29 0.25 0.27 0.30 0.29 0.30 0.33 0.31 0.30 0.25 0.23 0.28 0.25 0.26 0.30 0.30 0.35 0.38 0.42 0.48 0.50 0.49 0.51 0.55 0.57 0.61 0.64 0.65 0.68 0.67 0.65 0.65 0.66 0.66 0.69 0.72 0.72 0.72 0.73 0.76 0.79 0.80 0.78 0.80 0.84 0.87 0.91 0.93 0.92 0.94 0.97 0.99 1.00 1.00 1.00 1.01 1.00 1.01 0.99 0.98 0.99 1.00 1.00 1.02 1.02 1.02 1.00 0.96 0.91 0.91 0.89 0.80 0.73 0.77 0.82 0.84
0.41 0.36 0.39 0.38 0.36 0.37 0.37 0.35 0.33 0.31 0.30 0.29 0.28 0.27 0.29 0.29 0.31 0.30 0.26 0.26 0.30 0.26 0.20 0.31 0.30 0.30 0.34 0.36 0.40 0.44 0.47 0.51 0.56 0.58 0.59 0.62 0.62 0.63 0.65 0.65 0.64 0.63 0.63 0.64 0.65 0.66 0.66 0.67 0.69 0.70 0.73 0.74 0.75 0.77 0.77 0.79 0.82 0.85 0.87 0.88 0.90 0.92 0.93 0.95 0.95 0.95 0.94 0.94 0.94 0.95 0.98 1.01 1.03 1.04 1.04 1.02 1.01 0.97 0.94 0.95 0.92 0.83 0.79 0.79 0.82 0.85
0.38 0.34 0.39 0.39 0.37 0.39 0.39 0.38 0.38 0.36 0.34 0.32 0.32 0.32 0.31 0.30 0.31 0.28 0.27 0.28 0.33 0.25 0.25 0.30 0.30 0.30 0.35 0.37 0.40 0.44 0.46 0.49 0.52 0.57 0.62 0.66 0.65 0.65 0.66 0.63 0.61 0.60 0.60 0.61 0.64 0.65 0.66 0.65 0.65 0.64 0.65 0.67 0.70 0.71 0.72 0.72 0.75 0.79 0.80 0.81 0.83 0.85 0.87 0.91 0.92 0.93 0.94 0.95 0.95 0.96 0.97 0.99 1.01 1.03 1.05 1.02 0.98 0.96 0.93 0.92 0.93 0.92 0.87 0.86 0.89 0.93
0.39 0.36 0.38 0.38 0.36 0.37 0.38 0.38 0.38 0.36 0.36 0.36 0.34 0.33 0.33 0.31 0.30 0.30 0.30 0.29 0.28 0.28 0.28 0.31 0.32 0.33 0.34 0.37 0.41 0.46 0.52 0.54 0.57 0.62 0.66 0.65 0.64 0.64 0.64 0.64 0.61 0.60 0.59 0.59 0.61 0.63 0.65 0.65 0.65 0.64 0.63 0.63 0.63 0.65 0.67 0.70 0.73 0.76 0.76 0.78 0.82 0.85 0.88 0.90 0.89 0.88 0.90 0.90 0.92 0.94 0.96 0.98 0.99 1.01 1.02 1.00 0.98 0.96 0.95 0.95 0.96 0.96 0.94 0.96 0.97 0.97
0.37 0.34 0.38 0.37 0.33 0.33 0.36 0.36 0.37 0.36 0.35 0.34 0.36 0.37 0.36 0.35 0.34 0.34 0.32 0.31 0.30 0.29 0.30 0.28 0.29 0.27 0.35 0.40 0.42 0.48 0.54 0.58 0.58 0.58 0.61 0.63 0.65 0.66 0.66 0.65 0.63 0.61 0.61 0.59 0.61 0.63 0.64 0.65 0.66 0.64 0.64 0.63 0.64 0.65 0.69 0.71 0.72 0.75 0.78 0.81 0.82 0.83 0.84 0.84 0.85 0.85 0.86 0.86 0.90 0.93 0.95 0.95 0.97 0.99 0.98 0.99 0.99 1.00 0.98 0.96 0.96 0.97 0.98 0.98 1.01 1.00
0.38 0.35 0.39 0.36 0.31 0.32 0.36 0.36 0.36 0.37 0.37 0.36 0.35 0.36 0.36 0.35 0.33 0.35 0.34 0.37 0.33 0.31 0.31 0.30 0.26 0.28 0.34 0.39 0.41 0.44 0.48 0.49 0.51 0.56 0.60 0.62 0.64 0.67 0.65 0.64 0.62 0.62 0.63 0.61 0.62 0.64 0.65 0.64 0.62 0.61 0.61 0.63 0.66 0.69 0.71 0.70 0.68 0.69 0.69 0.72 0.74 0.78 0.83 0.84 0.83 0.81 0.81 0.84 0.86 0.88 0.91 0.93 0.95 0.95 0.97 0.99 0.99 1.00 1.01 1.01 0.98 0.94 0.92 0.94 0.94 0.97
0.36 0.33 0.32 0.33 0.28 0.29 0.36 0.37 0.36 0.36 0.35 0.31 0.31 0.35 0.37 0.36 0.36 0.34 0.35 0.37 0.36 0.38 0.31 0.28 0.28 0.37 0.38 0.40 0.38 0.38 0.40 0.44 0.49 0.53 0.57 0.59 0.61 0.61 0.61 0.60 0.61 0.62 0.62 0.62 0.62 0.62 0.63 0.63 0.61 0.59 0.60 0.60 0.62 0.66 0.69 0.70 0.68 0.67 0.69 0.71 0.73 0.75 0.75 0.75 0.75 0.76 0.78 0.81 0.83 0.86 0.90 0.92 0.91 0.92 0.92 0.94 0.95 0.97 0.97 0.95 0.95 0.95 0.93 0.94 1.00 1.04
0.36 0.34 0.31 0.35 0.27 0.29 0.33 0.35 0.36 0.30 0.22 0.24 0.37 0.40 0.39 0.36 0.35 0.33 0.32 0.33 0.34 0.35 0.33 0.35 0.35 0.38 0.38 0.38 0.36 0.37 0.38 0.41 0.45 0.52 0.58 0.58 0.57 0.59 0.64 0.66 0.65 0.66 0.66 0.66 0.67 0.65 0.63 0.63 0.62 0.60 0.60 0.61 0.63 0.65 0.68 0.72 0.71 0.70 0.71 0.72 0.72 0.69 0.67 0.66 0.66 0.67 0.67 0.71 0.76 0.80 0.83 0.86 0.89 0.90 0.91 0.92 0.91 0.90 0.89 0.89 0.91 0.94 0.97 0.98 1.00 1.00
0.33 0.32 0.30 0.34 0.28 0.29 0.32 0.32 0.27 0.20 0.21 0.35 0.39 0.39 0.38 0.36 0.35 0.33 0.33 0.35 0.36 0.36 0.35 0.34 0.34 0.34 0.35 0.35 0.36 0.37 0.39 0.42 0.45 0.48 0.52 0.57 0.59 0.59 0.59 0.63 0.62 0.66 0.67 0.69 0.69 0.69 0.68 0.66 0.64 0.63 0.61 0.61 0.63 0.67 0.68 0.65 0.65 0.66 0.68 0.69 0.65 0.63 0.60 0.60 0.59 0.59 0.60 0.62 0.65 0.71 0.74 0.75 0.75 0.76 0.77 0.80 0.81 0.82 0.82 0.84 0.84 0.83 0.82 0.85 0.86 0.86
0.31 0.29 0.30 0.30 0.31 0.30 0.27 0.26 0.18 0.18 0.31 0.36 0.36 0.36 0.38 0.37 0.35 0.32 0.30 0.33 0.34 0.35 0.35 0.33 0.35 0.36 0.37 0.37 0.38 0.39 0.40 0.42 0.43 0.46 0.49 0.52 0.54 0.53 0.52 0.51 0.57 0.63 0.65 0.68 0.69 0.70 0.71 0.70 0.66 0.62 0.61 0.62 0.62 0.64 0.66 0.67 0.67 0.65 0.64 0.65 0.62 0.61 0.59 0.58 0.57 0.57 0.57 0.56 0.58 0.61 0.64 0.66 0.65 0.64 0.66 0.66 0.68 0.71 0.73 0.76 0.75 0.75 0.75 0.76 0.75 0.76
0.36 0.33 0.31 0.28 0.30 0.23 0.24 0.24 0.23 0.31 0.31 0.31 0.31 0.32 0.34 0.30 0.30 0.29 0.23 0.28 0.34 0.36 0.35 0.33 0.34 0.35 0.35 0.36 0.38 0.39 0.41 0.41 0.39 0.41 0.46 0.48 0.50 0.51 0.51 0.54 0.55 0.55 0.61 0.69 0.71 0.70 0.71 0.70 0.68 0.66 0.63 0.63 0.64 0.64 0.67 0.70 0.68 0.67 0.66 0.63 0.62 0.61 0.60 0.61 0.60 0.60 0.61 0.61 0.61 0.61 0.62 0.61 0.60 0.60 0.62 0.63 0.61 0.61 0.63 0.65 0.65 0.64 0.65 0.63 0.62 0.62
0.37 0.32 0.32 0.27 0.26 0.27 0.24 0.22 0.23 0.22 0.19 0.26 0.32 0.36 0.37 0.38 0.36 0.36 0.29 0.26 0.34 0.36 0.37 0.36 0.34 0.35 0.35 0.37 0.38 0.39 0.41 0.35 0.31 0.35 0.41 0.46 0.48 0.49 0.52 0.54 0.54 0.56 0.57 0.58 0.61 0.62 0.63 0.65 0.63 0.64 0.61 0.63 0.63 0.67 0.70 0.73 0.73 0.69 0.67 0.66 0.64 0.65 0.65 0.64 0.62 0.62 0.60 0.59 0.60 0.61 0.61 0.60 0.60 0.59 0.59 0.60 0.61 0.62 0.64 0.65 0.64 0.63 0.62 0.60 0.60 0.60
0.37 0.37 0.35 0.29 0.27 0.26 0.24 0.21 0.20 0.19 0.23 0.32 0.34 0.36 0.38 0.37 0.38 0.37 0.28 0.24 0.33 0.36 0.38 0.37 0.35 0.36 0.36 0.37 0.38 0.40 0.37 0.31 0.29 0.34 0.40 0.43 0.45 0.48 0.48 0.50 0.51 0.52 0.53 0.55 0.56 0.56 0.56 0.57 0.57 0.59 0.60 0.59 0.57 0.62 0.69 0.68 0.70 0.69 0.66 0.64 0.63 0.63 0.61 0.61 0.61 0.62 0.62 0.62 0.62 0.62 0.62 0.61 0.60 0.60 0.60 0.60 0.62 0.63 0.62 0.63 0.63 0.64 0.64 0.64 0.63 0.61
0.29 0.30 0.31 0.28 0.26 0.26 0.24 0.21 0.19 0.25 0.25 0.33 0.37 0.38 0.38 0.42 0.38 0.34 0.20 0.21 0.32 0.37 0.38 0.38 0.36 0.37 0.37 0.39 0.40 0.38 0.34 0.28 0.30 0.34 0.41 0.42 0.44 0.46 0.46 0.46 0.47 0.47 0.48 0.51 0.51 0.52 0.52 0.54 0.53 0.51 0.51 0.52 0.54 0.57 0.61 0.67 0.65 0.64 0.62 0.62 0.61 0.60 0.59 0.60 0.62 0.64 0.66 0.65 0.65 0.65 0.65 0.65 0.64 0.63 0.61 0.61 0.64 0.65 0.64 0.66 0.65 0.65 0.64 0.64 0.64 0.63
0.23 0.24 0.25 0.23 0.25 0.27 0.25 0.23 0.26 0.28 0.34 0.37 0.38 0.39 0.40 0.42 0.37 0.23 0.18 0.26 0.35 0.38 0.39 0.39 0.39 0.39 0.40 0.38 0.39 0.34 0.36 0.36 0.37 0.40 0.44 0.44 0.44 0.44 0.46 0.47 0.47 0.47 0.47 0.48 0.48 0.50 0.50 0.51 0.51 0.50 0.50 0.52 0.55 0.57 0.58 0.58 0.60 0.59 0.60 0.61 0.60 0.59 0.58 0.59 0.59 0.59 0.59 0.63 0.64 0.63 0.62 0.63 0.62 0.61 0.60 0.61 0.62 0.60 0.60 0.60 0.58 0.60 0.61 0.61 0.63 0.63
0.23 0.23 0.24 0.23 0.20 0.20 0.22 0.22 0.24 0.29 0.36 0.40 0.41 0.41 0.42 0.35 0.23 0.23 0.31 0.37 0.37 0.36 0.38 0.38 0.37 0.38 0.39 0.39 0.38 0.38 0.39 0.41 0.42 0.43 0.42 0.43 0.44 0.45 0.45 0.45 0.46 0.47 0.49 0.50 0.49 0.48 0.49 0.50 0.50 0.50 0.51 0.53 0.54 0.55 0.55 0.54 0.54 0.56 0.58 0.57 0.59 0.59 0.63 0.63 0.63 0.63 0.63 0.62 0.62 0.63 0.65 0.66 0.65 0.64 0.64 0.63 0.61 0.60 0.58 0.59 0.60 0.62 0.64 0.65 0.65 0.64
0.23 0.22 0.21 0.22 0.24 0.23 0.22 0.20 0.20 0.18 0.33 0.39 0.40 0.38 0.41 0.31 0.30 0.36 0.38 0.39 0.40 0.40 0.40 0.40 0.40 0.39 0.39 0.38 0.40 0.40 0.40 0.41 0.41 0.41 0.42 0.43 0.44 0.44 0.45 0.45 0.46 0.46 0.46 0.47 0.47 0.48 0.47 0.47 0.48 0.49 0.49 0.51 0.52 0.52 0.54 0.53 0.52 0.53 0.52 0.53 0.57 0.58 0.59 0.60 0.61 0.61 0.61 0.61 0.61 0.61 0.62 0.63 0.65 0.65 0.63 0.63 0.63 0.60 0.59 0.61 0.61 0.61 0.62 0.62 0.62 0.62
0.25 0.20 0.20 0.24 0.27 0.20 0.20 0.20 0.21 0.31 0.36 0.42 0.40 0.32 0.38 0.39 0.42 0.41 0.40 0.40 0.43 0.45 0.43 0.42 0.42 0.43 0.43 0.42 0.41 0.42 0.42 0.42 0.43 0.43 0.44 0.45 0.45 0.45 0.45 0.46 0.45 0.46 0.46 0.47 0.48 0.48 0.47 0.46 0.47 0.48 0.50 0.51 0.52 0.51 0.51 0.49 0.47 0.49 0.49 0.52 0.57 0.55 0.55 0.55 0.55 0.55 0.56 0.56 0.57 0.57 0.57 0.57 0.59 0.62 0.63 0.62 0.62 0.61 0.61 0.62 0.61 0.63 0.62 0.61 0.60 0.60
0.24 0.21 0.25 0.21 0.30 0.24 0.24 0.28 0.35 0.39 0.40 0.42 0.42 0.41 0.43 0.45 0.48 0.47 0.46 0.44 0.42 0.43 0.46 0.43 0.43 0.44 0.45 0.44 0.43 0.43 0.42 0.44 0.43 0.45 0.44 0.45 0.46 0.47 0.45 0.47 0.47 0.45 0.45 0.45 0.46 0.46 0.46 0.45 0.45 0.46 0.46 0.47 0.48 0.48 0.49 0.48 0.47 0.45 0.44 0.49 0.52 0.51 0.52 0.52 0.52 0.51 0.51 0.51 0.52 0.52 0.52 0.53 0.55 0.57 0.58 0.59 0.59 0.58 0.59 0.60 0.59 0.57 0.58 0.58 0.56 0.55
0.24 0.25 0.28 0.26 0.24 0.32 0.34 0.34 0.37 0.38 0.39 0.40 0.43 0.43 0.43 0.43 0.45 0.45 0.42 0.41 0.42 0.43 0.43 0.41 0.43 0.43 0.43 0.43 0.40 0.41 0.41 0.43 0.42 0.44 0.44 0.45 0.44 0.46 0.47 0.47 0.49 0.49 0.47 0.47 0.48 0.47 0.45 0.45 0.45 0.44 0.43 0.44 0.46 0.47 0.47 0.47 0.46 0.44 0.46 0.48 0.47 0.47 0.47 0.47 0.48 0.48 0.49 0.49 0.50 0.51 0.51 0.51 0.52 0.53 0.55 0.57 0.58 0.58 0.59 0.60 0.59 0.55 0.55 0.56 0.54 0.53
0.22 0.23 0.23 0.20 0.26 0.22 0.19 0.30 0.30 0.32 0.35 0.36 0.37 0.41 0.42 0.42 0.41 0.42 0.41 0.40 0.40 0.41 0.40 0.41 0.42 0.40 0.41 0.40 0.39 0.37 0.38 0.41 0.39 0.40 0.41 0.41 0.42 0.42 0.44 0.44 0.46 0.46 0.46 0.45 0.46 0.45 0.43 0.42 0.41 0.41 0.40 0.40 0.41 0.42 0.42 0.42 0.42 0.42 0.43 0.44 0.45 0.45 0.45 0.44 0.43 0.44 0.45 0.46 0.48 0.49 0.50 0.50 0.50 0.51 0.53 0.55 0.56 0.57 0.58 0.59 0.60 0.57 0.54 0.54 0.53 0.53
0.19 0.26 0.21 0.20 0.21 0.19 0.21 0.26 0.29 0.30 0.30 0.32 0.32 0.31 0.32 0.33 0.35 0.37 0.38 0.39 0.40 0.40 0.41 0.40 0.40 0.41 0.38 0.38 0.39 0.35 0.35 0.38 0.36 0.35 0.36 0.38 0.39 0.40 0.40 0.41 0.41 0.42 0.43 0.43 0.43 0.42 0.40 0.38 0.37 0.36 0.36 0.36 0.38 0.39 0.39 0.39 0.39 0.39 0.40 0.40 0.41 0.41 0.41 0.40 0.39 0.39 0.39 0.40 0.42 0.44 0.46 0.47 0.49 0.47 0.46 0.49 0.54 0.54 0.54 0.56 0.59 0.58 0.55 0.54 0.53 0.51
0.23 0.24 0.18 0.22 0.19 0.22 0.25 0.25 0.25 0.26 0.27 0.27 0.28 0.32 0.32 0.31 0.32 0.33 0.34 0.33 0.34 0.34 0.34 0.36 0.34 0.33 0.34 0.32 0.33 0.33 0.32 0.34 0.35 0.35 0.34 0.33 0.34 0.35 0.36 0.36 0.37 0.37 0.37 0.36 0.36 0.35 0.34 0.33 0.32 0.32 0.33 0.33 0.35 0.35 0.35 0.35 0.36 0.37 0.37 0.38 0.39 0.38 0.37 0.36 0.36 0.36 0.35 0.36 0.37 0.37 0.39 0.41 0.44 0.45 0.46 0.48 0.52 0.53 0.53 0.54 0.57 0.57 0.57 0.60 0.60 0.57
0.20 0.17 0.21 0.19 0.17 0.17 0.18 0.21 0.23 0.19 0.20 0.24 0.26 0.29 0.29 0.28 0.30 0.29 0.29 0.31 0.31 0.30 0.30 0.28 0.31 0.33 0.33 0.33 0.31 0.31 0.29 0.30 0.32 0.32 0.30 0.30 0.31 0.32 0.32 0.32 0.32 0.31 0.31 0.32 0.32 0.32 0.31 0.31 0.31 0.30 0.30 0.30 0.31 0.31 0.31 0.31 0.32 0.33 0.34 0.35 0.36 0.37 0.35 0.34 0.34 0.33 0.33 0.33 0.34 0.35 0.35 0.35 0.35 0.37 0.41 0.44 0.46 0.49 0.52 0.52 0.55 0.58 0.59 0.63 0.63 0.61
0.18 0.20 0.18 0.17 0.17 0.17 0.22 0.23 0.25 0.22 0.22 0.24 0.25 0.26 0.27 0.27 0.26 0.26 0.27 0.26 0.26 0.28 0.27 0.25 0.24 0.25 0.26 0.27 0.29 0.27 0.27 0.26 0.28 0.29 0.28 0.27 0.28 0.30 0.29 0.29 0.28 0.28 0.28 0.28 0.28 0.28 0.28 0.28 0.28 0.28 0.27 0.28 0.29 0.29 0.29 0.28 0.29 0.29 0.30 0.30 0.31 0.32 0.32 0.32 0.31 0.30 0.30 0.30 0.30 0.31 0.34 0.35 0.34 0.34 0.36 0.38 0.40 0.44 0.47 0.50 0.49 0.51 0.53 0.55 0.58 0.58
Wind_Speed
12 12 13 13 13 13 14 14 12 10 10 11 11 12 13 13 13 13 12 11 12 13 14 15 16 17 16 14 14 13 13 14 14 14 15 15 15 15 16 15 15 14 14 13 12 13 13 12 12 12 12 12 13 14 15 16 17 16 15 15 15 15 14 14 13 13 13 12 10 7 7 6 5 5 4 3 3 2 2 2 2 2 3 3 3 4
12 13 13 13 11 11 11 12 12 11 11 12 12 12 12 13 12 10 11 11 11 13 13 13 15 15 14 14 14 13 13 13 14 14 15 15 15 15 15 15 14 14 13 12 12 12 13 12 12 12 12 12 14 15 16 17 17 15 14 14 15 15 14 13 13 14 14 13 10 7 7 7 6 5 4 4 3 2 2 1 2 2 2 2 3 3
13 14 13 13 10 10 11 11 13 13 13 12 12 12 12 13 11 9 10 10 10 12 11 12 14 13 12 13 13 13 12 12 13 13 14 15 15 15 14 14 14 14 13 13 12 12 12 12 12 12 12 13 14 15 16 17 17 16 15 15 15 15 14 14 14 14 14 13 10 8 7 7 6 5 4 3 3 2 2 1 1 2 2 2 3 3
12 12 12 12 11 11 12 12 13 13 13 13 12 12 11 11 12 10 10 10 10 10 10 12 12 11 12 13 12 12 11 11 13 14 14 14 14 14 14 14 14 14 14 13 13 13 12 13 12 12 12 13 14 15 16 17 17 16 15 15 16 16 15 15 16 15 15 14 11 9 8 7 7 6 5 4 3 2 2 1 1 1 2 2 2 3
11 8 10 11 11 12 12 12 14 13 13 14 13 13 11 10 11 9 8 9 9 9 10 12 12 11 12 13 13 12 11 11 13 14 14 14 14 14 14 14 13 14 14 13 13 13 13 13 13 13 13 13 14 15 16 16 17 16 16 16 16 17 17 17 17 16 15 14 12 10 8 7 7 6 5 4 3 3 2 2 2 2 2 2 2 2
12 9 9 11 11 12 12 12 14 13 12 13 14 14 11 10 11 9 8 9 10 9 10 11 11 11 12 13 12 12 12 12 12 13 14 14 14 14 13 13 13 13 14 13 13 14 14 15 15 14 14 14 15 15 16 17 17 16 16 16 16 16 17 17 17 17 15 14 12 11 9 8 8 7 6 5 4 4 3 2 2 2 2 2 2 2
12 10 11 11 12 12 12 12 13 13 12 11 13 15 13 11 11 10 10 10 10 8 9 11 11 10 11 12 12 12 13 12 12 12 13 14 14 14 13 13 13 13 13 13 14 14 15 15 14 13 12 13 14 15 15 16 17 17 17 16 15 16 17 16 17 17 15 13 12 11 10 9 8 7 7 6 5 4 4 3 2 2 2 2 2 2
13 13 12 12 12 12 12 12 13 14 12 9 10 13 13 12 11 11 11 11 9 7 9 12 11 10 11 11 11 12 13 13 13 13 13 13 14 13 13 13 13 13 13 13 14 14 13 11 11 11 12 12 13 14 15 15 16 17 17 16 15 15 16 17 17 16 14 13 12 11 10 9 9 8 7 6 5 5 4 4 3 3 3 2 2 2
13 15 14 13 12 11 12 11 12 15 13 8 8 10 11 11 11 11 11 10 9 9 11 12 11 11 11 11 11 12 13 12 12 13 13 13 13 13 13 13 13 13 13 13 13 14 12 9 7 9 11 12 12 12 14 15 16 17 17 17 16 16 15 16 16 15 14 13 12 11 10 9 9 8 7 6 6 5 5 5 4 3 3 3 2 2
12 14 13 13 12 10 11 10 11 15 13 8 9 10 9 10 11 11 11 10 10 11 13 11 11 12 11 11 12 12 12 11 10 11 11 11 11 12 12 13 14 14 13 13 13 13 12 10 9 9 11 13 13 12 13 15 16 16 17 17 17 17 15 16 17 16 14 13 13 12 11 9 9 8 7 7 6 6 6 5 4 3 3 3 3 2
11 12 12 13 12 9 9 9 11 13 12 10 11 10 10 10 10 11 11 10 10 12 12 10 10 12 11 11 12 11 10 10 10 10 10 10 11 11 11 12 14 14 14 13 14 13 11 10 10 11 11 14 15 14 14 15 15 16 16 17 17 16 16 16 17 16 15 14 13 12 11 10 9 8 8 7 7 7 6 6 5 4 4 4 3 3
14 14 13 13 12 10 10 11 11 12 12 12 12 11 10 10 10 11 11 11 12 12 10 9 10 13 13 11 11 10 10 9 10 10 9 9 10 10 11 12 13 15 15 14 14 13 12 11 12 12 11 13 16 16 16 16 15 16 16 16 16 15 16 16 16 16 15 14 14 13 11 11 10 9 8 8 7 7 7 7 6 5 5 4 3 3
16 16 15 14 13 13 13 12 12 13 13 13 12 12 12 10 10 12 11 11 13 11 9 9 11 13 14 11 10 10 10 10 10 10 9 9 9 9 10 11 12 14 15 14 14 14 14 14 13 12 11 12 14 16 16 16 16 16 17 17 15 15 17 17 16 17 16 14 14 13 12 11 11 10 9 8 7 8 8 8 7 6 5 4 4 3
16 17 17 16 14 15 15 13 13 14 14 14 14 13 13 11 10 12 12 11 12 10 9 9 11 13 14 12 11 11 10 10 10 10 10 10 9 9 10 10 11 13 14 14 14 15 16 15 15 15 14 14 15 15 16 16 17 17 18 18 16 15 17 17 16 17 18 16 15 14 13 12 12 11 9 8 8 8 8 8 8 7 6 5 4 4
16 16 18 18 15 15 17 15 14 14 15 15 14 13 14 12 11 12 11 11 12 10 9 10 11 12 12 11 10 11 11 11 11 11 11 11 11 11 11 11 11 12 13 13 14 16 17 17 17 17 16 16 16 16 17 17 17 18 19 19 18 17 18 19 17 17 18 19 17 15 14 13 12 11 10 9 9 9 9 8 8 7 6 5 5 4
17 15 14 16 14 15 18 16 15 15 15 15 14 14 14 13 12 10 9 9 9 9 10 11 12 11 10 10 10 12 12 12 11 11 11 11 12 12 12 12 12 13 14 14 14 15 17 18 19 18 17 16 17 17 18 17 17 18 20 20 20 20 20 20 20 19 19 20 19 17 16 15 14 12 11 10 10 9 9 9 9 8 7 6 5 5
17 15 13 15 16 16 16 16 16 16 14 14 15 15 13 12 12 11 10 9 10 12 11 11 13 12 11 12 11 12 12 11 11 11 11 11 12 12 12 12 13 13 14 14 13 14 15 16 17 18 16 16 17 17 18 19 18 18 20 21 21 21 21 21 22 22 21 21 20 19 17 16 15 14 12 11 11 10 10 10 9 9 8 7 6 6
16 14 14 17 18 16 15 16 17 16 14 13 15 15 12 12 13 13 12 10 12 14 11 11 14 13 12 11 11 12 12 11 11 10 10 11 11 11 11 11 11 11 11 11 11 12 13 13 14 16 16 16 16 17 18 19 19 19 20 22 23 23 23 22 23 24 23 22 21 20 19 18 16 15 13 12 12 11 11 11 10 10 9 8 8 7
16 15 13 15 17 16 16 17 17 17 16 14 14 14 13 13 13 13 13 12 12 13 12 12 13 13 13 11 10 12 12 11 11 10 10 10 10 9 9 9 9 9 10 10 10 10 11 11 11 13 14 15 15 15 16 17 17 17 19 21 22 22 22 22 24 25 24 22 22 21 20 19 17 16 14 14 13 12 12 12 11 11 10 10 9 8
17 16 13 14 15 15 17 19 18 17 18 17 15 15 15 14 13 12 13 13 12 12 12 12 12 13 13 11 10 11 11 11 11 10 10 10 9 9 9 9 9 9 9 9 10 10 9 10 10 11 13 13 13 13 13 15 16 16 17 18 18 18 19 18 21 24 24 22 22 21 20 18 17 16 16 15 14 13 13 13 12 12 11 11 10 9
17 17 14 13 14 16 17 18 18 17 17 18 18 17 16 15 14 13 14 13 13 12 11 11 12 11 10 9 9 9 10 11 11 10 9 9 9 9 8 8 9 9 9 9 9 9 9 8 9 10 11 11 11 12 12 13 13 14 15 16 15 15 16 17 18 21 23 22 22 21 20 19 18 17 17 16 15 14 14 14 13 13 12 12 11 10
17 17 17 15 15 17 16 15 16 16 15 16 17 18 17 16 15 15 15 14 14 14 12 11 11 9 8 9 9 9 9 10 10 9 9 8 8 8 8 8 8 8 8 8 8 8 8 8 8 8 9 10 10 11 11 11 10 11 12 13 13 12 14 15 18 20 21 21 21 21 20 19 18 18 18 17 16 15 15 14 14 14 13 12 12 11
16 17 17 17 15 15 14 13 15 16 15 16 16 16 17 17 17 17 15 13 14 15 13 12 11 8 7 8 9 9 9 9 9 9 9 8 8 7 7 7 7 7 7 7 7 7 7 8 8 8 8 9 9 10 11 11 9 9 10 10 10 11 12 13 15 17 18 19 19 19 19 18 18 18 18 18 17 16 15 15 15 14 14 13 13 12
17 16 17 17 15 14 14 14 15 15 16 17 16 16 17 17 17 16 14 12 13 14 14 13 12 10 9 8 9 9 9 10 10 10 9 9 8 8 8 7 7 7 7 7 7 7 7 7 7 8 8 8 9 10 10 10 10 9 9 9 9 10 11 12 13 14 15 16 18 18 17 17 17 17 18 18 18 17 16 16 16 15 15 14 14 13
18 17 17 18 17 16 16 16 15 15 16 16 15 15 16 16 16 16 15 14 14 15 15 14 12 10 10 10 9 10 10 11 11 10 10 9 9 9 8 8 7 7 7 7 7 6 6 6 6 7 7 8 8 9 9 9 9 9 8 8 8 9 11 11 12 13 14 15 16 16 16 16 16 16 17 17 18 18 17 17 17 16 16 15 15 14
17 17 18 19 18 18 17 15 15 15 15 15 14 14 15 15 16 16 16 17 16 15 16 15 11 9 10 10 10 10 11 10 10 10 10 10 10 9 9 8 8 7 7 7 7 6 6 6 6 6 6 7 7 7 7 8 9 9 8 8 8 9 10 11 12 12 13 14 15 15 16 16 16 16 16 17 18 18 18 18 17 17 17 16 16 16
15 16 18 19 19 17 14 13 13 13 12 13 12 12 13 13 14 15 16 16 15 14 15 14 11 10 11 10 10 10 11 11 11 11 10 10 10 10 9 9 9 8 8 8 8 7 7 6 7 7 7 7 7 7 7 8 9 10 10 9 9 9 10 11 11 12 12 13 14 14 15 15 15 16 16 17 17 18 18 18 18 17 17 17 17 17
15 16 17 19 20 18 15 13 14 13 12 12 11 11 11 11 11 13 13 12 12 12 12 11 11 11 11 10 10 10 11 11 11 11 11 11 11 10 10 10 10 9 9 9 9 8 8 7 7 8 8 8 8 8 8 8 9 10 10 10 10 11 11 11 11 11 12 13 13 14 14 15 15 15 16 16 17 18 18 18 18 18 18 18 18 18
14 14 15 17 18 19 18 17 17 16 15 14 13 12 12 11 11 11 11 11 11 11 9 8 10 11 10 10 11 11 11 12 11 11 12 12 12 12 11 11 11 11 10 10 10 9 9 9 8 8 9 9 9 9 8 9 9 9 10 11 11 12 12 12 12 12 12 12 13 14 14 15 15 15 15 16 17 18 19 19 19 19 19 19 19 18
11 12 13 14 14 15 16 16 17 17 16 16 16 15 14 13 13 13 12 12 12 12 11 10 10 10 10 11 11 11 12 12 12 12 13 13 13 13 12 12 12 12 12 12 11 11 11 10 10 10 10 10 10 10 9 9 9 9 10 10 11 12 12 12 13 13 13 13 14 14 15 15 15 15 16 16 17 18 19 20 20 19 19 19 19 19
12 12 13 13 12 12 12 13 14 14 15 16 17 17 16 16 16 15 15 14 14 14 13 13 13 12 12 12 11 12 13 13 13 13 13 13 14 15 14 13 13 13 13 13 12 12 12 12 11 11 11 11 11 11 11 10 10 10 11 11 12 12 13 13 14 14 14 15 15 15 15 15 16 16 16 16 17 18 19 19 19 19 20 19 19 19
14 13 13 13 12 12 13 13 13 13 13 15 16 16 17 17 16 16 16 16 16 15 15 15 16 15 14 13 13 12 13 13 13 13 13 13 15 16 16 15 15 14 14 14 14 13 13 13 12 12 13 13 13 13 13 12 12 12 12 12 13 13 14 15 15 15 16 16 17 17 17 17 17 16 16 16 17 18 19 19 20 20 20 20 20 20
15 15 15 15 15 14 15 15 14 13 14 15 16 15 15 15 15 15 14 14 15 16 16 16 15 14 14 15 14 13 13 13 13 14 14 14 14 15 15 15 15 15 14 14 14 14 14 14 13 14 14 14 14 15 15 15 14 14 13 13 14 14 15 15 15 16 17 17 18 18 18 18 18 18 17 17 17 18 18 19 20 20 21 21 21 22
17 17 16 16 16 15 15 15 15 16 16 14 13 14 14 14 14 14 13 13 13 14 14 14 13 13 14 14 13 12 12 12 13 14 15 15 15 15 14 15 15 15 15 15 15 15 15 15 15 15 15 15 16 16 16 16 16 15 15 15 15 15 15 16 16 16 17 17 18 18 18 18 19 19 19 19 18 18 18 19 19 19 20 20 20 20
16 17 16 16 16 14 14 15 16 17 16 13 12 13 14 14 14 13 12 12 13 13 14 14 13 13 13 13 13 13 12 12 13 13 14 15 16 16 16 16 15 15 15 15 16 16 16 15 15 15 16 16 17 17 17 17 17 17 16 16 16 16 16 16 16 17 17 17 17 18 18 18 19 19 19 19 19 19 19 19 19 20 20 20 19 19
16 16 16 16 15 14 15 17 17 15 14 13 13 14 15 15 16 15 14 13 14 15 15 15 14 14 14 14 14 14 13 13 13 14 15 16 16 17 17 16 15 15 15 15 15 15 15 15 15 16 17 18 18 18 17 17 18 17 17 17 17 17 17 18 18 18 18 18 18 18 18 19 19 19 20 20 20 20 20 20 20 20 20 20 20 20
16 16 16 16 16 16 18 19 17 15 15 16 16 15 16 17 17 17 16 16 16 17 17 16 16 16 16 16 16 16 16 15 15 15 16 16 17 17 17 17 16 16 15 15 14 14 13 13 14 14 15 15 16 16 17 17 17 17 17 18 18 18 18 19 19 19 19 18 18 18 19 19 19 19 20 21 21 21 21 21 21 21 21 21 22 22
15 16 17 17 18 18 20 20 19 18 18 18 17 16 17 17 18 19 18 17 18 18 18 18 18 18 18 18 18 19 19 18 17 17 17 17 18 18 18 18 17 17 17 16 16 16 15 15 15 14 13 13 13 13 15 15 15 16 17 17 17 17 17 17 17 18 18 18 18 19 19 20 20 20 20 20 20 21 21 21 21 22 22 22 22 23
16 17 17 18 18 19 21 22 21 20 18 17 17 17 17 18 19 19 19 19 19 19 19 19 19 19 19 19 19 20 20 20 19 19 19 19 19 19 19 19 19 19 19 19 19 19 19 19 19 19 18 17 16 15 16 16 16 16 17 17 18 18 17 17 17 18 18 18 19 20 20 21 21 21 22 22 22 22 22 22 22 22 22 23 23 23
16 17 18 20 20 20 21 22 20 18 17 17 17 18 18 18 19 20 20 20 19 18 18 18 18 18 19 20 20 20 19 20 20 20 20 20 20 20 20 20 20 20 20 20 21 21 21 21 21 21 21 21 21 20 21 20 20 18 18 18 19 19 19 19 20 21 21 22 22 22 23 23 23 23 23 23 23 23 24 24 24 24 24 24 24 24
14 16 18 20 20 20 20 21 18 16 16 17 17 18 19 19 20 20 20 18 18 18 18 17 17 18 18 18 19 19 18 18 19 19 20 21 21 21 21 21 21 21 21 21 22 22 22 22 22 21 22 22 22 22 23 23 23 23 22 22 22 22 23 23 24 25 25 25 26 26 26 26 25 25 26 26 26 26 26 27 27 27 27 26 26 26
14 15 16 18 19 19 19 20 19 16 16 17 17 18 19 19 19 19 18 18 17 17 17 17 17 17 17 17 18 18 19 19 19 20 21 21 21 22 22 22 22 22 22 22 22 22 22 22 22 22 22 23 23 23 23 24 24 25 25 25 25 25 25 26 26 26 27 27 27 28 28 28 28 28 28 28 28 28 28 28 28 28 28 28 27 27
13 15 15 14 16 18 19 20 20 17 17 18 18 18 18 18 18 18 17 17 17 17 17 17 17 17 18 18 18 18 19 19 20 20 21 22 22 23 23 23 23 23 23 23 24 24 24 24 24 24 24 25 25 25 25 25 26 26 27 27 27 27 27 27 27 27 28 28 28 28 29 29 30 30 30 30 29 29 29 29 29 29 29 29 28 28
13 14 14 13 14 16 17 17 17 16 16 17 17 17 16 16 17 17 17 17 16 17 18 18 17 18 18 19 19 20 20 21 21 22 22 23 23 24 24 24 25 25 25 25 26 26 26 27 27 27 27 27 27 27 28 28 28 29 29 29 29 30 30 30 30 30 30 30 30 30 30 31 31 31 32 31 31 30 30 30 29 29 29 30 30 30
12 13 13 13 13 13 13 13 14 14 14 14 14 14 14 15 16 16 16 16 17 17 18 18 18 19 19 19 20 20 21 22 22 23 24 24 25 25 25 26 26 26 27 27 28 28 28 29 29 29 29 29 29 30 30 30 30 31 31 32 32 32 32 32 32 32 32 32 32 32 32 32 32 33 33 33 32 32 31 31 31 30 30 30 30 31
11 13 14 13 12 12 12 13 13 13 13 13 13 14 14 14 15 15 16 16 17 18 18 19 19 19 20 20 21 21 22 23 23 24 25 25 26 26 27 27 27 27 27 28 28 28 29 29 29 30 30 31 31 31 31 31 32 32 33 33 33 34 34 34 34 34 34 34 33 33 33 33 33 33 33 33 33 33 33 32 32 32 32 32 32 32
9 11 11 11 12 13 13 13 13 13 13 13 13 14 14 14 14 15 15 16 16 17 18 19 19 20 21 21 21 22 23 23 24 25 26 26 27 27 27 28 28 28 28 29 29 30 30 31 31 31 32 33 33 33 33 33 34 34 34 35 35 35 36 36 36 36 36 36 36 35 35 35 34 34 34 34 34 34 35 34 34 34 34 34 33 33
8 9 9 9 10 11 10 11 11 12 12 13 14 14 15 15 15 15 16 16 16 17 17 18 19 19 20 21 21 22 23 24 24 25 26 26 27 28 28 28 29 30 30 31 32 33 33 34 34 34 35 35 36 36 36 37 37 37 37 38 38 38 38 38 39 39 39 39 39 38 38 37 37 37 37 36 36 37 37 37 37 37 36 36 36 35
7 8 8 8 8 8 8 9 10 10 11 13 13 13 14 14 15 16 16 17 18 18 18 19 20 20 21 22 22 23 24 25 25 26 27 27 28 29 30 31 32 33 33 33 34 35 36 36 37 37 38 38 38 39 39 39 40 40 40 40 41 41 41 41 41 42 42 41 41 41 41 40 40 40 39 39 39 39 39 39 39 38 38 38 37 37
7 7 7 7 8 8 9 9 10 10 10 10 11 11 12 13 14 15 16 17 18 18 19 20 21 21 22 23 23 24 25 25 26 27 28 29 30 30 31 32 32 33 33 33 34 35 36 37 38 38 39 40 40 40 41 41 42 42 42 42 42 43 43 44 44 44 43 43 42 42 42 41 41 41 41 41 40 40 40 40 40 40 40 40 39 39
6 6 6 7 7 7 7 8 9 9 8 8 9 10 11 12 13 14 15 15 16 17 18 19 20 21 22 22 23 24 25 26 27 28 28 29 30 31 31 32 33 33 33 33 34 35 36 37 38 39 40 40 40 41 42 42 43 43 43 43 43 44 44 44 44 44 43 43 42 42 42 42 42 41 41 41 41 41 41 41 41 41 41 41 41 41
Wind_Direction
215 217 217 220 219 217 218 221 228 231 228 225 223 224 224 222 221 225 227 227 232 238 236 234 236 236 232 228 226 221 216 217 220 220 220 219 217 216 214 215 216 217 220 221 224 229 232 235 235 235 235 230 225 219 211 208 206 208 210 204 199 199 201 204 204 202 201 198 194 194 193 192 193 195 201 210 215 220 226 233 240 244 245 246 247 246
216 222 222 221 221 218 219 223 226 226 226 225 224 222 222 223 223 223 227 228 231 236 235 232 234 231 226 222 217 214 213 215 217 218 218 216 215 213 211 212 213 215 218 220 225 229 232 235 235 234 233 227 222 216 211 208 207 207 205 201 199 199 201 203 202 198 194 191 191 191 189 189 189 190 197 202 209 217 223 234 237 241 245 246 249 251
219 226 225 220 220 220 222 223 223 224 224 223 221 221 221 220 221 221 224 229 229 232 233 228 226 222 217 216 211 212 216 218 219 218 217 215 213 212 210 211 212 214 217 220 225 228 230 234 234 232 230 225 218 213 209 207 206 204 201 200 201 202 202 202 199 193 188 187 189 193 196 199 201 201 199 199 208 216 224 238 242 243 248 255 257 256
219 226 224 216 216 220 221 221 221 222 222 221 217 218 219 214 219 224 219 222 226 233 235 222 216 215 210 209 210 213 216 220 222 218 215 215 214 212 211 211 212 215 218 223 227 230 231 232 232 230 226 221 216 210 207 205 204 202 200 200 202 202 202 201 197 192 191 193 195 200 203 205 210 210 205 204 210 218 234 257 264 262 260 264 263 258
222 221 217 212 213 219 220 218 218 218 217 219 217 218 218 211 219 226 212 214 220 227 229 214 209 212 208 208 212 212 213 219 219 215 215 215 213 212 212 213 214 217 221 225 227 230 231 230 229 227 222 218 213 208 206 203 201 201 201 204 205 202 198 198 198 195 197 201 202 206 206 207 211 213 215 217 221 227 245 272 279 282 282 277 268 262
225 214 209 210 212 216 220 217 216 217 215 216 217 221 223 215 218 222 211 215 219 216 216 214 213 209 206 211 212 208 212 217 215 213 214 212 211 212 213 215 217 220 223 226 227 229 231 230 227 224 219 215 211 209 207 203 202 203 205 209 209 200 193 196 198 197 198 202 204 207 208 211 214 218 222 225 228 234 247 263 270 281 290 291 281 273
223 213 211 213 213 216 222 221 214 214 217 215 212 215 220 219 220 221 218 221 223 215 208 215 221 211 204 210 210 208 212 213 210 212 212 211 212 215 216 219 221 222 224 226 229 230 232 232 228 225 220 212 209 210 208 204 204 207 210 213 208 198 196 200 199 197 199 203 205 208 210 213 217 221 224 226 230 236 244 249 254 267 276 283 281 274
219 212 211 213 216 219 222 220 212 211 217 215 206 209 215 219 220 221 222 225 228 221 210 216 226 222 209 207 209 211 213 211 211 213 214 214 216 218 221 223 224 224 223 226 231 232 233 236 232 226 220 212 207 208 208 208 208 210 215 215 209 202 202 203 201 199 203 206 208 210 211 213 216 218 221 224 229 234 238 240 244 253 261 271 275 272
213 211 209 211 217 220 219 218 209 208 216 217 207 209 213 218 221 221 225 228 226 224 219 216 223 227 215 204 207 211 211 211 212 214 217 218 220 223 225 226 226 225 223 224 229 231 233 240 237 224 216 209 204 206 210 213 214 216 218 217 213 210 208 208 207 206 208 211 212 213 211 211 214 216 219 222 226 231 233 234 236 244 256 263 265 266
213 214 215 215 218 222 218 218 212 210 217 218 206 206 211 216 221 224 228 228 224 228 228 215 217 228 220 206 210 213 210 209 210 213 216 219 224 228 230 230 229 228 226 225 226 230 237 241 234 223 214 208 206 210 212 213 215 216 218 219 216 216 217 217 212 208 210 213 213 214 213 211 213 216 219 221 224 229 230 229 230 237 251 257 256 259
216 214 220 220 224 227 218 215 215 213 216 213 207 207 211 216 221 226 228 227 226 231 228 214 218 230 225 213 213 214 211 212 214 215 217 223 230 233 235 236 234 231 231 228 226 230 238 240 231 223 218 212 212 214 213 211 212 214 218 219 217 218 219 216 210 209 212 213 212 214 213 212 212 215 219 221 224 229 228 226 229 236 245 251 250 252
219 217 220 220 223 225 217 211 212 212 212 212 212 213 215 217 222 225 224 225 231 232 223 215 223 231 230 222 215 212 212 218 222 224 228 234 238 240 239 238 237 236 234 230 229 232 237 239 233 227 225 220 217 217 214 212 214 216 218 217 217 218 217 212 212 214 214 213 214 214 213 212 213 216 220 224 227 229 229 229 230 232 237 241 245 246
222 222 222 220 220 222 219 213 209 210 211 213 215 217 219 219 221 225 223 224 232 231 220 220 227 232 233 228 218 215 216 220 226 231 236 240 241 242 239 235 236 238 235 231 232 236 240 241 237 234 234 230 224 223 220 217 218 219 218 216 217 219 218 216 217 218 217 217 216 215 215 215 216 219 224 228 230 230 230 231 228 227 230 235 242 241
221 223 223 222 222 220 220 217 211 209 211 215 217 219 223 223 223 228 226 226 232 229 219 222 232 235 233 228 223 225 226 226 229 231 234 236 237 238 236 233 234 236 237 236 237 241 243 242 240 238 238 234 228 227 225 223 223 224 221 218 220 223 222 220 219 218 219 220 219 218 218 217 218 222 227 230 231 230 230 229 226 227 228 230 234 232
222 224 222 221 222 217 218 221 217 213 214 219 222 225 229 232 231 232 233 234 235 231 221 222 233 237 233 230 230 229 229 230 231 230 230 231 233 236 236 236 238 238 240 241 243 244 242 241 242 240 238 233 229 227 226 227 229 229 226 224 225 227 225 222 221 221 221 221 221 222 222 221 221 224 228 231 231 231 231 228 225 225 224 225 226 228
227 231 221 218 223 218 218 223 221 220 221 222 226 230 231 235 235 235 242 244 241 239 229 225 235 241 239 237 233 229 228 229 232 232 231 234 236 238 240 242 244 243 243 244 243 243 242 243 243 240 237 233 229 228 228 230 233 231 229 228 229 229 227 225 225 225 223 220 220 223 224 223 224 226 229 230 229 231 231 229 226 223 222 222 222 226
228 232 220 217 223 222 224 225 222 225 226 222 227 230 230 235 236 236 240 240 241 245 237 230 237 240 238 238 231 228 230 229 232 235 235 238 239 240 243 244 245 244 243 243 241 240 240 242 241 239 237 233 229 231 230 231 234 233 231 231 232 230 228 228 227 225 223 220 219 223 226 225 226 226 226 227 228 230 231 230 226 222 221 222 223 228
230 231 223 220 222 222 226 227 223 226 228 225 228 227 225 233 235 237 241 237 236 242 239 233 237 237 235 235 226 224 228 228 230 233 233 234 235 236 239 241 242 240 239 239 239 239 238 238 237 234 234 233 230 231 232 234 236 237 236 235 234 232 230 231 229 225 223 219 219 223 226 225 225 225 225 227 228 228 229 228 224 221 221 224 228 232
229 230 225 223 224 220 220 224 223 225 229 231 231 225 224 232 232 232 238 238 236 240 240 233 234 237 236 232 223 221 223 223 224 224 225 226 227 231 232 234 236 236 237 236 236 240 240 238 235 230 230 233 230 230 235 235 234 235 236 236 235 232 232 234 229 222 218 216 217 223 224 224 225 226 226 226 225 226 227 227 225 223 224 228 232 233
227 230 228 223 225 222 219 223 224 223 225 229 231 227 229 235 235 233 234 237 239 241 240 235 234 237 235 230 227 222 217 218 217 216 219 222 226 230 230 231 233 234 238 239 237 238 239 238 236 231 230 231 230 230 233 232 232 233 233 232 233 230 228 227 220 213 212 213 218 222 222 224 226 224 223 222 223 226 228 228 227 227 228 230 232 234
225 228 229 222 222 224 222 223 225 225 224 225 227 227 228 232 235 238 237 237 241 243 240 237 237 235 230 231 231 219 211 214 214 213 218 222 225 229 231 234 236 237 239 241 239 236 233 235 236 233 232 232 231 229 227 228 232 234 231 229 229 225 221 218 213 209 210 214 219 221 221 224 224 221 221 223 226 229 231 230 229 229 229 229 230 233
225 226 227 223 222 224 224 225 228 230 229 227 228 228 229 230 232 236 237 235 238 242 241 241 241 232 226 232 229 219 215 216 214 214 218 221 223 225 229 232 233 235 236 235 235 233 232 235 236 233 232 232 228 225 224 227 231 229 226 224 223 220 218 217 215 213 214 216 218 219 219 222 223 222 223 225 228 230 231 230 229 229 229 228 228 231
228 227 226 225 225 224 223 224 227 231 232 231 233 232 231 231 231 234 238 233 232 236 238 241 242 232 224 230 227 222 221 216 213 216 218 219 222 222 220 222 223 226 227 228 230 231 233 236 236 233 232 231 227 227 230 232 230 226 220 217 216 214 212 211 210 212 213 213 213 214 216 219 222 224 225 227 230 230 230 230 230 229 228 228 230 232
227 226 226 226 226 225 225 225 227 231 231 230 232 232 232 233 232 236 240 236 231 231 231 235 237 227 220 224 222 220 218 215 215 219 219 219 220 216 211 213 216 218 223 225 225 227 229 232 234 235 234 235 235 235 236 234 229 224 218 213 210 206 203 202 203 205 208 209 211 214 218 221 224 225 226 229 231 230 229 230 231 230 229 230 234 236
226 225 226 225 223 224 224 225 225 226 227 229 230 231 234 234 232 235 238 238 237 232 228 234 237 225 217 218 217 216 215 215 217 220 221 220 216 214 212 213 214 217 223 223 218 219 223 228 234 236 234 237 239 240 238 233 228 225 221 218 214 209 206 206 208 210 212 215 217 221 224 226 228 229 230 232 233 231 229 230 231 231 230 232 235 236
226 225 226 225 223 223 223 224 227 225 224 227 228 228 233 233 231 233 234 236 237 232 229 236 237 219 211 213 214 215 215 216 218 219 221 219 214 211 212 214 217 221 224 223 220 221 226 233 239 239 235 235 237 239 237 233 229 226 223 221 218 217 217 219 220 220 221 222 224 226 229 231 233 234 234 235 235 232 229 230 232 232 231 232 234 236
228 228 227 229 230 231 229 226 229 227 221 222 222 221 227 231 232 234 233 233 235 231 229 232 227 214 210 212 216 219 220 220 219 217 217 215 213 213 214 218 222 226 227 226 226 227 231 239 241 239 238 238 236 237 238 236 234 231 228 227 222 221 223 225 226 227 227 228 229 230 232 234 237 238 237 236 235 232 230 230 232 233 232 232 234 237
226 228 230 231 233 236 235 230 229 227 222 221 220 218 223 229 232 233 232 233 233 231 229 226 222 219 218 219 222 226 228 226 224 224 222 218 217 217 219 222 224 226 229 229 229 230 234 239 241 240 239 239 238 238 239 239 237 235 233 232 228 226 226 226 227 228 229 231 233 233 233 234 236 237 236 235 234 231 231 231 233 234 233 234 236 239
223 224 226 228 231 235 237 234 231 228 225 225 228 228 229 231 233 233 234 237 235 232 232 231 227 225 227 232 234 235 237 234 234 237 232 224 222 221 222 224 226 227 229 230 232 235 237 239 240 239 238 239 241 241 241 241 239 237 237 237 234 232 231 230 231 232 232 232 233 233 232 233 235 235 234 233 233 232 232 233 233 233 234 235 237 241
227 223 221 221 222 226 230 230 227 225 224 226 230 233 232 232 233 233 234 237 236 233 234 235 233 232 237 244 244 242 242 238 236 237 233 226 224 224 226 229 230 232 233 234 235 237 239 240 241 241 240 242 244 244 243 242 240 238 239 238 237 236 236 235 235 236 237 237 236 235 235 235 237 236 235 234 235 235 235 235 235 235 236 237 240 244
230 225 219 216 214 217 223 225 223 224 226 228 230 232 233 234 236 236 235 238 240 239 237 236 237 237 240 245 244 241 241 238 236 236 235 232 230 229 232 235 235 236 237 237 237 238 239 242 245 247 248 248 248 246 244 245 245 244 243 242 241 241 241 241 241 242 243 243 242 241 241 241 241 240 238 237 237 237 237 237 237 239 241 242 244 246
227 225 221 219 222 223 223 224 226 230 235 237 234 233 233 235 237 237 237 240 243 242 240 241 242 242 242 243 242 241 241 240 240 240 238 238 237 235 235 236 236 236 237 237 239 239 240 244 247 250 251 252 251 248 246 247 248 247 245 245 246 246 247 247 248 248 248 248 246 245 245 245 244 243 243 241 239 239 239 240 239 240 242 245 246 247
226 225 222 224 230 229 224 224 228 230 236 240 237 233 233 235 236 235 236 240 244 244 242 243 243 241 240 241 241 243 246 245 245 244 240 240 241 240 238 237 235 235 238 240 242 243 245 248 249 250 252 253 252 251 249 249 249 249 248 247 247 248 249 249 250 251 251 251 249 248 248 247 246 245 245 245 244 243 242 242 242 242 244 245 246 247
228 227 227 230 236 231 222 221 226 228 232 237 235 233 235 237 235 234 236 240 243 243 242 241 240 239 240 241 241 242 245 246 244 243 241 240 241 244 247 246 240 238 241 243 244 247 250 251 252 252 252 253 253 252 251 251 250 251 250 248 249 250 250 250 251 252 254 253 252 250 249 248 246 246 246 246 246 246 245 244 244 244 245 245 245 244
229 231 233 234 236 230 218 217 226 232 235 237 235 234 236 237 234 231 235 241 243 241 238 236 237 239 240 241 241 240 240 242 243 244 244 242 242 245 251 254 250 245 245 246 245 246 248 250 252 254 255 255 254 254 254 254 254 254 253 252 251 251 251 252 253 253 253 253 251 249 248 248 247 246 246 246 247 247 247 246 246 245 245 244 242 239
234 234 233 231 232 229 223 223 231 237 236 233 234 234 235 235 234 234 238 244 246 244 240 237 238 239 238 237 238 238 237 240 244 246 247 245 245 246 250 254 254 251 251 252 249 247 246 248 252 257 259 258 257 256 256 255 255 255 255 255 254 253 254 254 253 252 252 249 247 245 246 247 247 248 248 248 248 248 247 248 247 246 246 245 244 243
239 236 231 230 233 235 234 233 237 242 240 235 236 239 241 242 243 245 245 244 246 248 244 240 240 240 240 240 240 240 240 242 245 248 249 248 247 248 250 251 251 248 249 250 248 247 246 246 251 256 257 257 257 256 255 253 251 251 253 255 254 254 254 254 252 251 249 248 247 246 246 247 248 249 250 250 250 250 249 248 248 248 248 248 247 248
240 239 236 236 237 240 242 241 242 245 245 241 240 243 247 248 248 250 248 244 246 249 247 244 243 242 242 242 243 246 247 247 247 248 249 250 250 250 251 252 252 251 250 249 249 251 251 250 251 253 253 253 255 255 254 252 250 250 251 251 251 251 252 252 251 249 248 247 248 248 248 248 249 250 251 252 252 251 251 250 250 250 250 250 249 249
237 238 239 240 239 240 243 246 247 248 248 247 245 247 249 249 248 248 247 245 247 249 248 247 246 245 245 245 246 249 250 248 247 248 249 250 252 253 254 255 255 256 256 255 256 257 257 256 255 255 255 255 256 255 254 253 254 254 253 252 252 253 254 254 253 252 251 250 250 250 250 250 251 252 252 252 252 252 252 253 253 252 252 251 250 250
239 240 239 241 241 241 243 247 249 250 250 249 250 252 253 250 248 248 249 248 248 249 249 247 245 246 248 247 247 250 251 249 247 248 250 251 252 254 256 257 257 258 259 259 260 260 259 259 258 258 258 258 257 256 255 255 256 257 256 256 256 257 258 257 257 258 257 255 255 255 254 254 254 254 254 254 253 253 253 255 255 254 253 253 252 252
244 245 243 244 244 244 244 246 249 250 251 252 255 256 255 251 248 249 251 250 248 248 248 247 247 248 249 249 248 250 251 251 250 250 251 253 254 255 257 258 258 259 260 261 262 262 260 260 260 260 259 259 259 258 257 255 255 256 256 257 259 260 261 260 260 260 259 259 258 257 256 256 255 255 256 256 256 256 256 256 255 255 254 254 254 254
250 249 247 247 248 247 246 248 249 249 253 257 257 255 253 251 249 249 250 249 247 246 247 248 249 250 250 251 251 250 250 252 254 254 254 256 257 257 259 260 260 261 261 262 262 263 262 261 261 261 261 261 261 260 259 258 257 257 257 258 260 261 261 262 261 261 260 260 260 258 257 256 257 257 257 257 256 256 257 256 254 253 253 253 252 252
256 252 248 249 251 249 248 249 249 250 255 260 259 253 252 252 249 248 248 247 247 246 247 249 251 252 251 251 252 253 254 256 257 258 258 259 259 259 260 260 261 261 262 262 263 264 263 262 262 263 263 263 262 262 261 260 259 259 259 260 261 262 262 262 262 262 261 260 260 258 257 257 258 257 257 256 256 256 256 255 253 252 252 252 252 252
257 254 250 251 254 252 249 249 250 252 255 259 257 251 250 250 249 248 248 249 249 249 249 250 252 254 254 254 255 256 257 258 259 260 260 260 260 260 260 260 261 261 262 263 263 264 264 264 264 264 264 264 264 264 263 263 262 262 262 262 262 263 263 263 263 262 261 260 259 259 258 258 258 257 257 256 256 255 255 254 253 252 252 253 254 254
256 255 253 253 253 253 251 247 248 252 255 256 253 248 247 248 250 252 252 252 252 252 252 253 253 253 255 256 257 259 259 260 261 261 261 261 261 261 261 260 260 261 262 263 263 264 264 264 265 265 265 265 265 266 265 264 264 263 263 263 263 263 263 263 263 262 261 261 260 260 260 260 259 258 258 257 256 255 254 253 253 253 253 253 253 254
252 253 255 252 246 247 248 244 244 247 249 251 251 248 248 249 251 253 254 254 255 255 255 256 256 256 257 258 259 260 261 262 263 263 262 262 262 262 262 262 261 262 263 263 263 264 264 265 265 265 266 266 266 266 265 265 265 264 264 264 264 263 263 263 263 262 262 261 261 261 261 261 261 260 259 257 256 255 255 254 254 254 254 254 254 254
251 254 254 249 246 249 249 244 243 245 244 245 247 247 248 250 250 251 253 254 255 255 257 257 257 258 260 260 260 261 261 261 261 262 262 262 262 262 263 263 263 263 264 264 265 266 266 266 266 266 266 266 266 265 265 264 264 264 264 264 264 264 263 263 263 262 262 262 262 262 262 262 261 260 259 258 257 255 255 255 255 255 255 255 255 255
253 253 251 249 250 251 246 240 242 245 245 246 249 250 250 251 252 253 255 255 255 256 257 259 260 262 263 263 264 265 265 264 264 265 265 265 265 266 266 266 266 267 267 267 267 268 268 268 268 268 268 268 267 267 266 266 265 265 264 264 264 264 264 264 263 263 263 263 263 263 262 262 262 261 260 259 258 257 256 256 256 256 256 255 255 256
254 252 250 249 248 246 242 237 239 244 246 247 250 253 254 255 256 257 259 260 260 261 262 263 263 264 265 266 266 266 266 266 267 268 268 268 268 269 269 269 269 269 269 269 269 269 269 269 269 270 270 269 269 268 268 267 267 266 266 265 265 264 264 264 264 264 263 263 262 262 262 261 261 261 260 259 259 258 257 256 256 256 256 256 256 256
256 252 248 247 245 245 242 237 240 249 252 249 249 253 255 258 259 260 261 263 264 265 266 266 266 265 265 267 267 267 267 268 268 268 269 269 270 270 270 270 270 270 270 270 270 270 270 270 271 271 271 270 270 269 269 268 268 268 267 267 266 266 265 265 265 264 264 263 263 262 262 261 261 260 259 259 259 258 258 257 257 256 256 256 256 257
262 258 254 253 253 251 242 235 242 256 258 253 254 257 258 260 263 264 265 266 267 268 269 270 270 269 269 269 269 270 270 270 270 270 271 272 272 272 271 271 272 272 271 271 271 272 272 272 272 272 271 271 270 269 269 269 269 268 268 267 267 266 265 265 265 264 264 263 263 262 261 261 260 260 259 259 258 258 258 257 257 256 256 256 256 257